Terminal Aerodrome Forecast
Issued by NWS Portland, OR

Home | Current Version | Previous Version | Text Only | Print | Product List | Glossary On
Versions: 1 2 3 4 5 6 7 8 9 10 11 12 13 14 15 16 17 18 19 20 21 22 23 24 25 26 27 28 29 30 31 32 33 34 35 36 37 38 39 40 41 42 43 44 45 46 47 48 49 50
000
FTUS46 KPQR 310856 AAA
TAFPDX
TAF AMD
KPDX 310856Z 3109/0106 VRB03KT P6SM FEW090
     FM311000 VRB03KT P6SM FEW025 SCT080
     FM311400 VRB04KT P6SM SCT020 BKN050
     FM311800 30006KT P6SM FEW050 SCT070=

USA.gov is the U.S. government's official web portal to all federal, state and local government web resources and services.